STARLINK-1722 (46361 NORAD) Tracking and Keplerian Element Data

This shows tracking and keplerian element data for the satellite.

Feedback or suggestion? Click here.




ElementValue
Catalog46361
NameSTARLINK-1722
Epoch Orbit178
Epoch Day268.91668981
Epoch Year2020
RAAN324.4546
Inclination53.0005
Eccentricity0.0001358
Argument of Perigee50.7587
Mean Anonmoly179.7362
Mean Motion15.62754074
Decay Rate0.00022213
L11 46361U 20062AN 20268.91668981 .00022213 00000-0 24774-3 0 9993
L22 46361 53.0005 324.4546 0001358 50.7587 179.7362 15.62754074 1784

Live tracking and technical data element details for STARLINK-1722 (NORAD 46361). STARLINK-1722 can be tracked NOW for your location showing map with azimuth and elevation plus other details from your city location.

Track the satellite on the map from your city or location and see movement details for azimuth, elevation, latitude, longitude, range, height, and movement on the map or in text.







IsCatalogInMostPopularTable: catalog: 46361, numindb: 2
Update: records affected: 1



GetName: 46361 STARLINK-1722

Hit Count: updated at: Mon, 28 Sep 2020 22:14:47 GMT